[[{"header":{"parameterUnit":"m.s-1","parameterCategory":1,"la1":30.2991,"la2":30.254,"lo1":-89.0895,"lo2":-89.0444,"dy":0.0017,"dx":0.0017,"nx":28,"ny":28,"refTime":"2024-08-16T09:00:00:Z","depth":0,"parameterNumber":2,"parameterNumberName":"U-component_of_WINDS"},"data":[0,0,0,0,0,0,0,0,0,0,0,0,0,0,0,0,0,0,0,0,0,0,0,0,0,0,0,0,0,0,0,0,0,0,0,0,0,0,0,0,0,0,0,0,0,0,0,0,0,0,0,0,0,0,0,0,0,0,0.0228,0.023,0,0.0355,0.0357,0.0358,0.0425,0.0425,0.0425,0.0425,0.0558,0.0561,0.0565,0,0,0,0,0,0,0,0,0,0,0,0,0,0.0044,0.0047,0.0228,0.023,0.0231,0.0355,0.0357,0.0359,0.0425,0.0425,0.0425,0.0425,0.0557,0.0561,0.0565,0,0,0,0,0,0,0,0,0,0,0,0,0,0.0143,0.0048,0.0228,0.0279,0.0285,0.0355,0.0357,0.0359,0.0425,0.0425,0.0425,0.0425,0.0555,0.056,0.0565,0.0594,0,0,0.0581,0.0583,0,0,0,0,0,0,0,0,0.0137,0.015,0.027,0.0276,0.0283,0.0374,0.0341,0.0438,0.0425,0.0372,0.0425,0.0425,0.0497,0.0507,0.053,0.0601,0.0606,0.0582,0.0585,0.0587,0.0588,0,0,0,0,0,0,0,0.013,0.0145,0.0279,0.0272,0.0279,0.0296,0.0311,0.0359,0.0432,0.0376,0.0382,0.0396,0.05,0.0525,0.0534,0.0608,0.0582,0.0586,0.0589,0.0591,0.0707,0.0707,0,0,0,0,0,0,0.0115,0.0138,0.0275,0.0282,0.0209,0.0299,0.0315,0.0345,0.0432,0.0445,0.0395,0.0398,0.0516,0.0528,0.0539,0.0578,0.0587,0.0592,0.0595,0.0707,0.0707,0.0707,0,0,0,0,0,0,0.0111,0.0127,0.0269,0.0212,0.0231,0.0303,0.0335,0.0347,0.0372,0.0446,0.0459,0.0407,0.0517,0.0532,0.058,0.0583,0.0594,0.0599,0.0707,0.0707,0.0707,0.0656,0,0,0,0,0,0,0.0105,0.0125,0.0136,0.0212,0.0234,0.0308,0.0335,0.035,0.0381,0.0386,0.0461,0.0473,0.0518,0.0572,0.0585,0.0591,0.0603,0.0708,0.0707,0.0707,0.0658,0.0654,0.0651,0,0,0,0,0,0.0098,0.0118,0.0136,0.0153,0.025,0.0308,0.0321,0.0371,0.0381,0.0393,0.044,0.0471,0.0581,0.0576,0.0591,0.0599,0.0708,0.0707,0.0707,0.0659,0.0655,0.0651,0,0,0,0,0,0,0.0042,0.0128,0.015,0.0194,0.0243,0.0319,0.0336,0.0365,0.0413,0.0415,0.0477,0.0493,0.0535,0.0572,0.0565,0.0631,0.0647,0.065,0.0605,0.0602,0.0598,0.0589,0.0607,0,0,0,0,0,0.0034,0.0073,0.0147,0.0179,0.0202,0.0264,0.0291,0.0326,0.0379,0.04,0.0451,0.0502,0.0548,0.0577,0.0623,0.0663,0.068,0.0676,0.0672,0.0669,0.0671,0.0694,0.0693,0.0707,0.0707,0.0707,0,0,0.002,0.0072,0.0093,0.0169,0.0211,0.025,0.0281,0.0322,0.0352,0.0407,0.0455,0.0493,0.0554,0.0598,0.062,0.063,0.0671,0.0669,0.0666,0.067,0.0694,0.0692,0.0691,0.0707,0.0707,0.0707,0,0,0.0013,0.0056,0.0087,0.0127,0.019,0.0231,0.0238,0.0309,0.0336,0.0385,0.0427,0.0463,0.0541,0.0582,0.0614,0.062,0.065,0.0633,0.0617,0.0638,0.0637,0.0636,0.0638,0.0638,0.0635,0.0635,0.0635,0,-0.0013,0.0047,0.0099,0.0137,0.0169,0.0218,0.025,0.0287,0.0361,0.0382,0.0392,0.049,0.0535,0.0588,0.0589,0.0613,0.0623,0.0625,0.0633,0.0632,0.0633,0.0635,0.0635,0.0633,0.0633,0.0633,0.0633,0,0.0012,0.0053,0.007,0.0139,0.0173,0.0207,0.0264,0.0292,0.0323,0.0363,0.0411,0.0466,0.0524,0.0539,0.057,0.0597,0.0601,0.0621,0.0639,0.0628,0.0631,0.0632,0.0629,0.063,0.0631,0.0631,0,0,-0.0026,0.007,0.0076,0.0107,0.0178,0.0211,0.0247,0.0302,0.0325,0.0374,0.0406,0.0469,0.0488,0.0523,0.0559,0.0578,0.0578,0.0596,0.0598,0.059,0.0609,0.0593,0.0593,0.0598,0.0598,0.0599,0.0604,0,-0.0023,0.0044,0.0091,0.0139,0.0177,0.0224,0.0256,0.0303,0.034,0.0378,0.0421,0.0464,0.0486,0.0507,0.0528,0.0573,0.0583,0.0574,0.0628,0.0629,0.0611,0.0595,0.0579,0.0581,0.0605,0.0606,0.0606,0,-0.001,0.0036,0.0088,0.0153,0.0171,0.0198,0.0252,0.0288,0.0342,0.0368,0.0406,0.0442,0.0482,0.0496,0.0551,0.0544,0.0569,0.0595,0.0596,0.0603,0.0617,0.0601,0.0583,0.0583,0.0608,0.0608,0.0608,0,-0.0044,0.0031,0.0072,0.0097,0.0175,0.0193,0.0226,0.0281,0.031,0.0357,0.0377,0.0428,0.0456,0.0495,0.0544,0.0549,0.0594,0.0612,0.0617,0.0615,0.0625,0.0623,0.0609,0.0641,0.0641,0.0641,0.0641,0,-0.0045,-0.0016,0.0057,0.0082,0.0116,0.017,0.0202,0.024,0.0287,0.032,0.0364,0.0394,0.0457,0.0495,0.0534,0.0573,0.0586,0.0608,0.0618,0.0604,0.0601,0.0621,0.0622,0.0641,0.0641,0.0641,0.0641,0,-0.0077,-0.0026,0.002,0.009,0.0108,0.013,0.0189,0.0215,0.0254,0.0295,0.0308,0.037,0.0416,0.0469,0.0533,0.0559,0.0595,0.061,0.0577,0.0582,0.0584,0.0583,0.0583,0.0585,0.0614,0.0614,0.0613,0,-0.0081,-0.0057,0.0014,0.0038,0.007,0.0109,0.0139,0.0192,0.0222,0.0284,0.0302,0.0351,0.0393,0.0465,0.0516,0.0565,0.0581,0.0577,0.0589,0.0573,0.058,0.0578,0.058,0.0574,0.0574,0.0573,0.0573,0,-0.0095,-0.0071,-0.003,0.0019,0.0053,0.0095,0.0138,0.0156,0.0218,0.0248,0.0295,0.0328,0.0392,0.044,0.0495,0.053,0.0561,0.0569,0.0572,0.0558,0.0537,0.0548,0.0568,0.0569,0.0569,0.0569,0.057,0.057,-0.0112,-0.009,-0.0037,0.0007,0.0045,0.0084,0.0111,0.0153,0.0193,0.0249,0.0278,0.0324,0.0376,0.0452,0.0486,0.0523,0.0534,0.0539,0.054,0.0541,0.0536,0.0531,0.0533,0.0534,0.0534,0.0534,0.0534,0,-0.0124,-0.0088,-0.0049,0.001,0.0044,0.007,0.0119,0.0146,0.0185,0.0231,0.0271,0.0324,0.0371,0.0424,0.0474,0.0493,0.0509,0.0504,0.0504,0.0511,0.0524,0.0516,0.0491,0.0491,0.0491,0.0491,0.0491,0.0491,-0.0126,-0.0087,-0.0058,-0.0,0.0036,0.0081,0.0106,0.0143,0.0179,0.0236,0.0274,0.0309,0.0357,0.0411,0.0454,0.0469,0.0485,0.0476,0.0494,0.0506,0.051,0.0514,0.0506,0.0479,0.0479,0.0478,0.0478,0.0478]},{"header":{"parameterUnit":"m.s-1","parameterCategory":1,"la1":30.2991,"la2":30.254,"lo1":-89.0895,"lo2":-89.0444,"dy":0.0017,"dx":0.0017,"nx":28,"ny":28,"refTime":"2024-08-16T09:00:00:Z","depth":0,"parameterNumber":3,"parameterNumberName":"V-component_of_WINDS"},"data":[0,0,0,0,0,0,0,0,0,0,0,0,0,0,0,0,0,0,0,0,0,0,0,0,0,0,0,0,0,0,0,0,0,0,0,0,0,0,0,0,0,0,0,0,0,0,0,0,0,0,0,0,0,0,0,0,0,0,3.7872,3.7871,0,3.7805,3.7804,3.7803,3.7806,3.7807,3.7808,3.7809,3.7732,3.7729,3.7726,0,0,0,0,0,0,0,0,0,0,0,0,0,3.7997,3.7995,3.7872,3.7871,3.787,3.7805,3.7804,3.7803,3.7806,3.7807,3.7809,3.781,3.7733,3.773,3.7726,0,0,0,0,0,0,0,0,0,0,0,0,0,3.7937,3.7994,3.7872,3.7864,3.7863,3.7805,3.7804,3.7803,3.7806,3.7807,3.7809,3.781,3.7734,3.773,3.7726,3.7668,0,0,3.7712,3.771,0,0,0,0,0,0,0,0,3.7941,3.7933,3.7866,3.7865,3.7863,3.7816,3.782,3.7757,3.7806,3.7827,3.7809,3.7811,3.7758,3.7752,3.7736,3.7665,3.7662,3.7712,3.7709,3.7707,3.7706,0,0,0,0,0,0,0,3.7945,3.7936,3.7845,3.7865,3.7863,3.7862,3.7855,3.7808,3.7785,3.7826,3.7826,3.7818,3.7758,3.774,3.7734,3.766,3.7712,3.7708,3.7705,3.7703,3.7539,3.7538,0,0,0,0,0,0,3.7952,3.7939,3.7847,3.7843,3.7907,3.7859,3.7851,3.7829,3.7786,3.7781,3.7817,3.7819,3.7747,3.7739,3.7731,3.7661,3.7707,3.7703,3.77,3.7541,3.7539,3.7537,0,0,0,0,0,0,3.7954,3.7944,3.785,3.7891,3.7879,3.7855,3.7831,3.7827,3.781,3.7779,3.7774,3.7804,3.7748,3.7737,3.7685,3.7659,3.7701,3.7697,3.7543,3.754,3.7538,3.7521,0,0,0,0,0,0,3.7958,3.7944,3.7924,3.7891,3.7877,3.7806,3.7829,3.7825,3.7803,3.7804,3.7765,3.776,3.7748,3.7691,3.768,3.7653,3.7693,3.7545,3.7542,3.7539,3.7524,3.7518,3.7513,0,0,0,0,0,3.7962,3.792,3.7923,3.7912,3.7851,3.7805,3.7797,3.7786,3.7801,3.7779,3.776,3.7762,3.7664,3.7686,3.7673,3.7645,3.7547,3.7543,3.7539,3.7526,3.7519,3.7514,0,0,0,0,0,0,3.7947,3.7915,3.7918,3.7864,3.7838,3.7806,3.7778,3.7779,3.7746,3.7748,3.7734,3.7725,3.7672,3.7653,3.7678,3.7587,3.7607,3.76,3.7601,3.7594,3.7589,3.7594,3.769,0,0,0,0,0,3.7939,3.7906,3.7879,3.7834,3.7821,3.7802,3.7781,3.7776,3.7746,3.7734,3.7711,3.768,3.7643,3.7618,3.7581,3.7522,3.7512,3.7496,3.7491,3.7487,3.748,3.7447,3.7439,3.7525,3.7525,3.7525,0,0,3.7918,3.7897,3.7876,3.783,3.7809,3.7774,3.7792,3.7753,3.7726,3.7727,3.7676,3.7659,3.7623,3.7567,3.7541,3.755,3.7455,3.7482,3.7479,3.7475,3.7442,3.7434,3.7427,3.7522,3.7523,3.7523,0,0,3.7863,3.7845,3.7805,3.7784,3.7753,3.7741,3.7732,3.77,3.7689,3.7639,3.7639,3.7605,3.7541,3.7516,3.7495,3.7433,3.7433,3.7421,3.7393,3.7361,3.7354,3.7348,3.7325,3.7317,3.7416,3.7416,3.7416,0,3.7841,3.779,3.7784,3.7746,3.7725,3.7728,3.7686,3.7666,3.7623,3.7607,3.7619,3.7539,3.7516,3.7453,3.7439,3.7422,3.7409,3.7425,3.7357,3.735,3.7344,3.7322,3.7313,3.7414,3.7415,3.7415,3.7415,0,3.7764,3.7729,3.77,3.7662,3.7638,3.7599,3.7584,3.7561,3.7558,3.7544,3.7492,3.7465,3.7423,3.7408,3.7404,3.7345,3.7352,3.736,3.7379,3.7335,3.7314,3.7305,3.7413,3.7413,3.7413,3.7414,0,0,3.7694,3.7656,3.7646,3.7629,3.7596,3.7567,3.7527,3.749,3.7469,3.744,3.7405,3.7352,3.736,3.7336,3.7329,3.7301,3.7252,3.7312,3.7311,3.7301,3.7185,3.7178,3.7168,3.7253,3.7252,3.725,3.7187,0,3.7635,3.7568,3.7562,3.75,3.7466,3.747,3.7435,3.741,3.7396,3.7364,3.7348,3.7311,3.7325,3.7311,3.7283,3.7264,3.7228,3.7269,3.7218,3.7216,3.7225,3.7157,3.7149,3.709,3.7179,3.7178,3.7177,0,3.7556,3.7528,3.7464,3.7437,3.7422,3.7391,3.7357,3.7327,3.7298,3.729,3.7265,3.7262,3.7219,3.7242,3.7182,3.7209,3.7189,3.7176,3.7174,3.7167,3.7192,3.7146,3.7072,3.7062,3.7163,3.7165,3.7165,0,3.7511,3.7457,3.7411,3.7397,3.7364,3.7342,3.7327,3.73,3.7278,3.7247,3.7232,3.7196,3.7175,3.7146,3.7133,3.7151,3.7073,3.7095,3.7063,3.7064,3.7045,3.7046,3.6964,3.7034,3.7035,3.7035,3.7035,0,3.7444,3.7404,3.7391,3.7362,3.7318,3.7311,3.7266,3.7251,3.7228,3.7195,3.7196,3.7165,3.715,3.7117,3.7106,3.7057,3.7048,3.7039,3.7036,3.7038,3.7039,3.7022,3.7025,3.7032,3.7033,3.7033,3.7034,0,3.7384,3.7374,3.7325,3.7299,3.7292,3.726,3.7236,3.7208,3.7197,3.7155,3.7145,3.7126,3.7086,3.7071,3.7022,3.7015,3.6958,3.6959,3.6968,3.6967,3.6936,3.6939,3.6839,3.6825,3.6907,3.6906,3.6905,0,3.7341,3.7311,3.7283,3.7263,3.7248,3.7215,3.7194,3.7186,3.7163,3.7129,3.7104,3.7066,3.7035,3.6971,3.6951,3.6913,3.6913,3.6881,3.6907,3.6909,3.691,3.6912,3.6908,3.6875,3.6874,3.6873,3.6873,0,3.7265,3.7263,3.7233,3.7202,3.7177,3.7151,3.7126,3.7109,3.7097,3.7071,3.7033,3.7009,3.6961,3.6922,3.6884,3.6866,3.6866,3.6865,3.6856,3.6856,3.6862,3.6857,3.6953,3.6867,3.6867,3.6868,3.6868,3.6868,3.7211,3.7185,3.7162,3.7129,3.711,3.7087,3.706,3.7046,3.7015,3.6977,3.6974,3.6932,3.6904,3.6853,3.6834,3.68,3.6808,3.6794,3.679,3.6787,3.6784,3.687,3.6793,3.6793,3.6793,3.6793,3.6793,0,3.7135,3.7121,3.7091,3.7058,3.7031,3.7039,3.7012,3.6988,3.6952,3.6928,3.6898,3.6854,3.6816,3.6795,3.6757,3.6734,3.6733,3.6724,3.6724,3.672,3.6779,3.6791,3.6725,3.6725,3.6725,3.6725,3.6725,3.6725,3.7091,3.7047,3.7042,3.6988,3.6974,3.6935,3.6919,3.6897,3.6878,3.6829,3.6799,3.6787,3.6762,3.6723,3.6689,3.6684,3.6669,3.6659,3.6653,3.6709,3.6716,3.6722,3.6733,3.6656,3.6656,3.6596,3.6596,3.6595]}]]